Location: Grambois
(43.7619°N, 5.5873°E)
Time: 08:58:38
(UTC+00:00)

Cosmos 1606 - Pass Details

Date: 07 June 2020
Orbit: 504 x 527 km, 82.5° (Epoch: 14 July)

Event Time Altitude Azimuth Distance (km) Brightness Sun altitude
Rises 02:50:06 0° 352° (N) 2,617 6.9 -10.0°
Reaches altitude 10° 02:52:13 10° 353° (N) 1,729 5.9 -9.8°
Maximum altitude 02:56:01 84° 80° (E) 516 2.7 -9.3°
Drops below altitude 10° 02:59:48 10° 171° (S) 1,723 5.0 -8.8°
Sets 03:01:55 0° 172° (S) 2,607 5.9 -8.5°
